Weather observations for the past three days for
Tahlequah, Tahlequah Municipal Airport
Imperial (Metric)
Date Time (cdt) Wind (mph) Vis. (mi.) Weather Sky Cond. Temperature (ºF) Relative Humidity Wind Chill (°F) Heat Index (°F) Pressure Precipitation (in)
Air Dwpt 6 hour altimeter (in) sea level (mb) 1 hr 3 hr 6 hr
Max. Min.
24 01:15 Calm 10.00 Fair CLR 68 66.2 94% 30.12 0.0
24 00:55 Calm 10.00 Fair CLR 68 66.2 94% 30.12 0.0
24 00:35 Calm 10.00 Fair CLR 68 68 100% 30.12 0.0
24 00:15 Calm 10.00 Fair CLR 69.8 68 94% 30.12 0.0
23 23:55 Calm 10.00 Fair CLR 69.8 66.2 88% 30.12 0.0
23 23:35 Calm 10.00 Fair CLR 71.6 64.4 78% 30.12 0.0
23 23:15 Calm 10.00 Fair CLR 71.6 64.4 78% 30.11 0.0
23 22:55 Calm 10.00 Fair CLR 71.6 66.2 83% 30.11 0.0
23 22:35 Calm 10.00 Fair CLR 71.6 68 88% 30.11 0.0
23 22:15 Calm 10.00 Fair CLR 71.6 68 88% 30.11 0.0
23 21:55 Calm 10.00 Fair CLR 73.4 68 83% 30.1 0.0
23 21:35 Calm 10.00 Fair CLR 73.4 68 83% 30.09 0.0
23 21:15 Calm 10.00 Mostly Cloudy SCT049 SCT070 BKN085 75.2 69.8 83% 75 30.09 0.0
23 20:55 Calm 10.00 Overcast OVC049 75.2 69.8 83% 75 30.09 0.0
23 20:35 Calm 10.00 Mostly Cloudy BKN049 75.2 71.6 89% 75 30.07 0.0
23 20:15 Calm 10.00 Fair CLR 77 71.6 83% 78 30.06 0.0
23 19:55 Calm 10.00 Fair CLR 78.8 71.6 79% 82 30.06 0.0
23 19:35 Calm 10.00 Fair CLR 80.6 71.6 74% 85 30.06 0.0
23 19:15 Calm 10.00 Fair CLR 82.4 69.8 66% 86 30.05 0.0
23 18:55 Calm 10.00 Fair CLR 84.2 68 58% 87 30.05 0.0
23 18:35 Calm 10.00 Fair CLR 82.4 69.8 66% 86 30.05 0.0
23 18:15 Calm 10.00 Fair CLR 80.6 71.6 74% 85 30.05 0.0
23 17:55 Calm 7.00 Partly Cloudy SCT023 SCT032 SCT041 77 71.6 83% 78 30.05 0.0 0.02
23 17:35 Calm 2.00 Overcast with Haze SCT023 BKN035 OVC049 80.6 71.6 74% 85 30.06 0.0 0.01
23 17:15 Calm 10.00 Overcast SCT049 BKN065 OVC085 86 68 55% 89 30.05 0.0
23 16:55 Calm 10.00 Overcast BKN047 BKN065 OVC085 86 68 55% 89 30.05 0.0 0.15
23 16:35 Calm 10.00 Overcast BKN045 BKN050 OVC065 89.6 66.2 46% 92 30.05 0.0 0.15
23 16:15 Calm 10.00 Mostly Cloudy BKN065 BKN100 BKN120 91.4 68 46% 96 30.05 0.0 0.1
23 15:55 Calm 10.00 Partly Cloudy SCT090 91.4 66.2 44% 94 30.06 0.0 0.29
23 15:15 Calm 10.00 Partly Cloudy SCT055 SCT080 89.6 68 49% 93 30.06 0.0 0.07
23 14:55 Calm 10.00 Fair CLR 91.4 68 46% 96 30.06 0.0 0.07
23 14:35 Calm 10.00 Fair CLR 91.4 68 46% 96 30.07 0.0 0.03
23 14:15 Calm 10.00 Partly Cloudy SCT070 SCT080 89.6 68 49% 93 30.07 0.0 0.01
23 13:55 Calm 10.00 Overcast SCT040 BKN075 OVC100 87.8 68 52% 91 30.08 0.0 0.02
23 13:35 Calm 10.00 Mostly Cloudy SCT040 SCT050 BKN080 87.8 68 52% 91 30.09 0.0 0.01
23 13:15 Calm 10.00 Partly Cloudy SCT043 SCT049 89.6 68 49% 93 30.09 0.0
23 12:55 Calm 10.00 Partly Cloudy SCT034 SCT039 SCT047 89.6 68 49% 93 30.09 0.0 0.01
23 12:35 Calm 10.00 Partly Cloudy SCT070 87.8 68 52% 91 30.1 0.0
23 12:15 Calm 10.00 Partly Cloudy SCT070 86 69.8 59% 91 30.1 0.0
23 11:55 Calm 10.00 Fair CLR 86 69.8 59% 91 30.1 0.0 0.01
23 11:35 Calm 10.00 Partly Cloudy SCT050 SCT070 SCT075 80.6 69.8 70% 84 30.1 0.0
23 11:15 Calm 10.00 Mostly Cloudy SCT047 SCT055 BKN080 78.8 69.8 74% 81 30.1 0.0
23 10:55 Calm 10.00 Mostly Cloudy SCT017 SCT042 BKN080 82.4 69.8 66% 86 30.09 0.0 0.01
23 10:35 Calm 10.00 Partly Cloudy SCT015 SCT049 SCT120 86 71.6 62% 92 30.09 0.0 0.01
23 10:15 Calm 10.00 Partly Cloudy SCT015 82.4 71.6 70% 87 30.09 0.0
23 09:55 Calm 10.00 Fair CLR 80.6 71.6 74% 85 30.09 0.0
23 09:35 Calm 10.00 Fair CLR 78.8 69.8 74% 81 30.09 0.0
23 09:15 Calm 10.00 Fair CLR 75.2 71.6 89% 75 30.09 0.0
23 08:55 Calm 10.00 Fair CLR 73.4 73.4 100% 30.09 0.0 0.01
23 08:35 Calm 10.00 Fair CLR 73.4 71.6 94% 30.09 0.0 0.01
23 08:15 Calm 7.00 Fair CLR 69.8 69.8 100% 30.07 0.0 0.01
23 07:55 Calm 7.00 Partly Cloudy SCT026 68 68 100% 30.07 0.0
23 07:35 Calm 7.00 Partly Cloudy SCT026 68 68 100% 30.07 0.0
23 07:15 Calm 4.00 Fog/Mist SCT026 66.2 66.2 100% 30.07 0.0
23 06:55 Calm 5.00 Fog/Mist CLR 64.4 64.4 100% 30.06 0.0 0.01
23 06:35 Calm 2.00 Fog/Mist CLR 64.4 64.4 100% 30.06 0.0 0.01
23 06:15 Calm 1.25 Fog/Mist VV007 64.4 64.4 100% 30.06 0.0 0.01
23 05:55 Calm 5.00 Fog/Mist CLR 64.4 64.4 100% 30.05 0.0
23 05:35 Calm 7.00 Fair CLR 64.4 64.4 100% 30.05 0.0
23 05:15 Calm 5.00 Fog/Mist CLR 64.4 64.4 100% 30.04 0.0
23 04:55 Calm 5.00 Fog/Mist CLR 64.4 64.4 100% 30.04 0.0 0.01
23 04:35 Calm 5.00 Fog/Mist CLR 64.4 64.4 100% 30.03 0.0
23 04:15 Calm 10.00 Fair CLR 64.4 64.4 100% 30.03 0.0
23 03:55 Calm 7.00 Fair CLR 64.4 64.4 100% 30.03 0.0 0.01
23 03:35 Calm 7.00 Fair CLR 66.2 66.2 100% 30.03 0.0 0.01
23 03:15 Calm 7.00 Fair CLR 66.2 66.2 100% 30.03 0.0
23 02:55 Calm 7.00 Fair CLR 68 68 100% 30.03 0.0 0.01
23 02:35 Calm 7.00 Fair CLR 68 68 100% 30.03 0.0 0.01
23 02:15 Calm 7.00 Fair CLR 68 68 100% 30.03 0.0 0.01
23 01:55 Calm 10.00 Fair CLR 68 68 100% 30.03 0.0 0.01
23 01:35 Calm 10.00 Fair CLR 66.2 66.2 100% 30.03 0.0 0.01
23 01:15 Calm 7.00 Fair CLR 66.2 66.2 100% 30.03 0.0 0.01
23 00:55 Calm 7.00 Fair CLR 68 68 100% 30.03 0.0
23 00:35 Calm 7.00 Fair CLR 68 68 100% 30.04 0.0
23 00:15 Calm 10.00 Fair CLR 68 68 100% 30.04 0.0
22 23:55 Calm 10.00 Fair CLR 68 68 100% 30.04 0.0
22 23:35 Calm 10.00 Fair CLR 69.8 69.8 100% 30.04 0.0
22 23:15 Calm 10.00 Fair CLR 69.8 69.8 100% 30.04 0.0
22 22:35 Calm 10.00 Fair CLR 69.8 69.8 100% 30.05 0.0
22 22:15 Calm 10.00 Fair CLR 69.8 69.8 100% 30.04 0.0
22 21:55 Calm 10.00 Partly Cloudy SCT110 69.8 69.8 100% 30.04 0.0
22 21:35 Calm 10.00 Fair CLR 69.8 69.8 100% 30.03 0.0
22 21:15 Calm 10.00 Partly Cloudy SCT120 71.6 69.8 94% 30.02 0.0
22 20:55 Calm 10.00 Partly Cloudy SCT120 73.4 69.8 89% 30.02 0.0
22 20:35 Calm 10.00 Fair CLR 75.2 69.8 83% 75 30.02 0.0
22 20:15 Calm 10.00 Fair CLR 77 68 74% 79 30 0.0
22 19:55 Calm 10.00 Fair CLR 78.8 68 70% 81 29.99 0.0
22 19:35 Calm 10.00 Fair CLR 77 69.8 79% 79 30 0.0
22 19:15 Calm 10.00 Fair CLR 77 69.8 79% 79 29.99 0.0
22 18:55 Calm 10.00 Fair CLR 78.8 68 70% 81 29.99 0.0 0.01
22 18:35 Calm 10.00 Fair CLR 78.8 68 70% 81 29.99 0.0 0.01
22 18:15 Calm 10.00 Fair CLR 77 66.2 69% 79 29.99 0.0
22 17:55 Calm 10.00 Fair CLR 78.8 68 70% 81 30 0.0
22 17:35 N 5 10.00 Partly Cloudy SCT060 SCT120 78.8 69.8 74% 81 30 0.0
22 17:15 Calm 10.00 Mostly Cloudy SCT060 BKN120 80.6 68 66% 83 30.01 0.0
22 16:55 NE 3 10.00 Overcast SCT055 OVC120 78.8 69.8 74% 81 30.01 0.0
22 16:35 Calm 10.00 Overcast BKN055 OVC110 80.6 68 66% 83 30.02 0.0
22 16:15 Calm 10.00 Mostly Cloudy SCT055 SCT080 BKN110 80.6 69.8 70% 84 30.02 0.0
22 15:55 Calm 10.00 Mostly Cloudy SCT080 BKN110 78.8 69.8 74% 81 30.02 0.0
22 15:35 SE 3 10.00 Mostly Cloudy SCT050 SCT070 BKN080 78.8 69.8 74% 81 30.02 0.0
22 15:15 E 7 10.00 Mostly Cloudy SCT039 SCT050 BKN080 77 71.6 83% 78 30.03 0.0
22 14:55 E 5 10.00 Overcast SCT060 BKN070 OVC080 73.4 69.8 89% 30.04 0.0
22 14:35 NE 5 10.00 Overcast SCT007 BKN060 OVC100 69.8 69.8 100% 30.05 0.0
22 14:15 SE 14 G 20 0.25 Overcast with Haze OVC007 71.6 64.4 78% 30.06 0.0
22 13:55 SW 7 4.00 Overcast with Haze OVC032 78.8 68 70% 81 30.05 0.0 0.01
22 13:35 Calm 10.00 Mostly Cloudy SCT034 SCT043 BKN050 82.4 66.2 58% 85 30.05 0.0 0.01
22 13:15 Calm 10.00 Mostly Cloudy SCT032 SCT044 BKN050 86 66.2 52% 88 30.05 0.0 0.01
22 12:55 Calm 10.00 Overcast BKN030 BKN041 OVC055 86 68 55% 89 30.06 0.0
22 12:35 Calm 7.00 Partly Cloudy SCT030 SCT090 82.4 68 62% 85 30.06 0.0
22 12:15 Calm 10.00 Mostly Cloudy SCT034 SCT060 BKN085 82.4 68 62% 85 30.06 0.0
22 11:55 Calm 10.00 Overcast SCT031 BKN050 OVC065 84.2 68 58% 87 30.07 0.0
22 11:35 Calm 10.00 Mostly Cloudy SCT038 BKN050 BKN065 82.4 68 62% 85 30.07 0.0
22 11:15 Calm 10.00 Mostly Cloudy SCT036 SCT046 BKN065 82.4 68 62% 85 30.07 0.0
22 10:55 Calm 10.00 Partly Cloudy SCT019 SCT027 SCT065 78.8 68 70% 81 30.08 0.0
22 10:35 Calm 10.00 Partly Cloudy SCT019 SCT025 SCT030 78.8 68 70% 81 30.08 0.0
22 10:15 Calm 10.00 Partly Cloudy SCT016 82.4 68 62% 85 30.07 0.0
22 09:55 Calm 10.00 Partly Cloudy SCT016 SCT047 78.8 68 70% 81 30.08 0.0
22 09:35 Calm 10.00 Partly Cloudy SCT047 77 68 74% 79 30.07 0.0
22 09:15 Calm 10.00 Partly Cloudy SCT025 SCT033 75.2 68 78% 76 30.08 0.0
22 08:55 Calm 10.00 Mostly Cloudy SCT025 BKN033 73.4 68 83% 30.08 0.0 0.01
22 08:35 Calm 10.00 Mostly Cloudy BKN033 BKN038 BKN044 71.6 69.8 94% 30.07 0.0
22 08:15 Calm 10.00 Overcast SCT031 OVC040 69.8 69.8 100% 30.06 0.0
22 07:55 Calm 10.00 Overcast SCT023 OVC029 68 68 100% 30.06 0.0
22 07:35 Calm 10.00 Overcast SCT023 BKN060 OVC070 68 68 100% 30.06 0.0
22 07:15 Calm 10.00 Overcast OVC060 66.2 66.2 100% 30.06 0.0
22 06:55 Calm 10.00 Mostly Cloudy SCT028 SCT038 BKN060 66.2 66.2 100% 30.05 0.0
22 06:35 Calm 10.00 Mostly Cloudy BKN028 BKN034 64.4 64.4 100% 30.05 0.0
22 06:15 Calm 10.00 Mostly Cloudy BKN028 64.4 64.4 100% 30.05 0.0
22 05:55 Calm 10.00 Fair CLR 64.4 64.4 100% 30.05 0.0
22 05:35 Calm 10.00 Fair CLR 64.4 64.4 100% 30.04 0.0
22 05:15 Calm 10.00 Mostly Cloudy BKN028 64.4 64.4 100% 30.04 0.0
22 04:55 Calm 10.00 Overcast OVC026 66.2 66.2 100% 30.03 0.0
22 04:35 Calm 10.00 Overcast OVC024 64.4 64.4 100% 30.03 0.0
22 04:15 Calm 10.00 Mostly Cloudy BKN022 64.4 64.4 100% 30.04 0.0
22 03:55 Calm 10.00 Partly Cloudy SCT022 64.4 64.4 100% 30.03 0.0
22 03:35 Calm 10.00 Fair CLR 64.4 64.4 100% 30.04 0.0
22 03:15 Calm 10.00 Fair CLR 64.4 64.4 100% 30.04 0.0
22 02:55 Calm 10.00 Fair CLR 66.2 66.2 100% 30.04 0.0 0.01
22 02:35 Calm 10.00 Fair CLR 66.2 66.2 100% 30.04 0.0 0.01
22 02:15 Calm 7.00 Fair CLR 66.2 66.2 100% 30.05 0.0
22 01:55 Calm 10.00 Fair CLR 66.2 66.2 100% 30.06 0.0
22 01:35 Calm 10.00 Partly Cloudy SCT110 66.2 66.2 100% 30.06 0.0
22 01:15 Calm 10.00 Partly Cloudy SCT110 68 68 100% 30.07 0.0
22 00:55 Calm 10.00 Partly Cloudy SCT110 68 68 100% 30.07 0.0
22 00:35 Calm 10.00 Partly Cloudy SCT110 68 68 100% 30.07 0.0
22 00:15 Calm 10.00 Partly Cloudy SCT080 SCT110 68 68 100% 30.08 0.0
21 23:55 Calm 10.00 Mostly Cloudy SCT036 SCT050 BKN080 69.8 68 94% 30.07 0.0
21 23:35 E 3 10.00 Overcast BKN034 BKN050 OVC070 69.8 69.8 100% 30.07 0.0
21 23:15 NE 3 10.00 Mostly Cloudy SCT013 SCT019 BKN030 69.8 69.8 100% 30.09 0.0
21 22:55 Calm 10.00 Mostly Cloudy SCT011 BKN018 BKN030 69.8 69.8 100% 30.08 0.0 0.01
21 22:35 Calm 10.00 Overcast SCT009 BKN018 OVC033 69.8 69.8 100% 30.08 0.0
21 22:15 Calm 10.00 Overcast SCT027 BKN034 OVC055 69.8 69.8 100% 30.07 0.0
21 21:55 Calm 10.00 Overcast SCT027 SCT034 OVC040 69.8 69.8 100% 30.07 0.0 0.01
21 21:35 Calm 10.00 Mostly Cloudy BKN038 69.8 69.8 100% 30.06 0.0 0.01
21 21:15 Calm 10.00 Partly Cloudy SCT040 69.8 69.8 100% 30.05 0.0 0.01
21 20:55 Calm 10.00 Partly Cloudy SCT070 69.8 69.8 100% 30.05 0.0 0.01
21 20:35 Calm 10.00 Partly Cloudy SCT070 71.6 69.8 94% 30.05 0.0 0.01
21 20:15 Calm 10.00 Partly Cloudy SCT060 71.6 69.8 94% 30.05 0.0 0.01
21 19:55 Calm 10.00 Partly Cloudy SCT060 71.6 69.8 94% 30.04 0.0 0.01
21 19:35 Calm 10.00 Fair CLR 73.4 69.8 89% 30.04 0.0 0.01
21 19:15 Calm 10.00 Fair CLR 71.6 69.8 94% 30.04 0.0
21 18:55 Calm 10.00 Fair CLR 71.6 69.8 94% 30.04 0.0 0.02
21 18:35 Calm 10.00 Partly Cloudy SCT007 SCT031 71.6 71.6 100% 30.03 0.0 0.01
21 18:15 Calm 10.00 Partly Cloudy SCT007 SCT031 SCT043 71.6 71.6 100% 30.03 0.0 0.01
21 17:55 Calm 10.00 Mostly Cloudy BKN033 BKN042 BKN050 71.6 71.6 100% 30.03 0.0 0.01
21 17:35 E 5 10.00 Overcast BKN031 BKN038 OVC048 71.6 71.6 100% 30.04 0.0 0.01
21 17:15 E 5 10.00 Overcast SCT025 BKN032 OVC048 69.8 69.8 100% 30.04 0.0
21 16:55 Calm 2.00 Fog/Mist SCT012 BKN025 OVC031 69.8 69.8 100% 30.05 0.0 0.02
21 16:35 Calm 4.00 Fog/Mist SCT021 BKN026 OVC042 71.6 68 88% 30.05 0.0 0.01
21 16:15 N 10 10.00 Overcast SCT016 BKN021 OVC027 77 68 74% 79 30.04 0.0
21 15:55 Calm 10.00 Overcast SCT025 BKN031 OVC050 80.6 68 66% 83 30.04 0.0 0.03
21 15:35 Calm 10.00 Mostly Cloudy SCT024 SCT030 BKN043 80.6 68 66% 83 30.04 0.0 0.02
21 15:15 SW 6 10.00 Overcast SCT022 BKN028 OVC060 80.6 68 66% 83 30.05 0.0 0.01
21 14:55 Calm 10.00 Mostly Cloudy SCT025 SCT032 BKN050 80.6 68 66% 83 30.05 0.0
21 14:35 Calm 10.00 Partly Cloudy SCT040 SCT070 SCT085 80.6 68 66% 83 30.06 0.0
21 14:15 S 5 10.00 Mostly Cloudy SCT040 BKN060 BKN070 80.6 69.8 70% 84 30.06 0.0
21 13:55 S 3 10.00 Mostly Cloudy SCT021 SCT027 BKN047 77 68 74% 79 30.07 0.0 0.01
21 13:35 S 5 10.00 Overcast SCT017 BKN021 OVC036 77 68 74% 79 30.08 0.0 0.01
21 13:15 S 3 10.00 Mostly Cloudy SCT018 BKN027 BKN035 77 68 74% 79 30.09 0.0 0.01
21 12:55 S 5 10.00 Overcast BKN018 BKN027 OVC034 77 68 74% 79 30.09 0.0
21 12:35 Calm 10.00 Overcast BKN014 OVC022 77 68 74% 79 30.09 0.0
21 12:15 Calm 10.00 Overcast BKN014 OVC021 73.4 69.8 89% 30.09 0.0
21 11:55 Calm 10.00 Overcast BKN012 BKN026 OVC041 75.2 68 78% 76 30.1 0.0 0.01
21 11:35 Calm 10.00 Overcast BKN012 BKN026 OVC065 75.2 69.8 83% 75 30.1 0.0 0.01
21 11:15 Calm 10.00 Overcast BKN012 BKN048 OVC060 73.4 68 83% 30.1 0.0
21 10:55 Calm 10.00 Mostly Cloudy SCT008 SCT018 BKN048 71.6 68 88% 30.11 0.0
21 10:35 Calm 10.00 Mostly Cloudy SCT017 SCT034 BKN040 71.6 69.8 94% 30.11 0.0
21 10:15 Calm 10.00 Mostly Cloudy SCT019 SCT035 BKN045 69.8 69.8 100% 30.11 0.0
21 09:55 SE 5 10.00 Mostly Cloudy SCT019 SCT036 BKN042 69.8 69.8 100% 30.1 0.0
21 09:35 SE 3 10.00 Mostly Cloudy SCT019 SCT034 BKN100 68 68 100% 30.1 0.0
21 09:15 Calm 10.00 Overcast SCT004 BKN021 OVC100 68 68 100% 30.1 0.0
21 08:55 Calm 10.00 Overcast BKN004 BKN022 OVC090 66.2 66.2 100% 30.11 0.0 0.01
21 08:35 Calm 10.00 Mostly Cloudy SCT004 BKN090 66.2 66.2 100% 30.1 0.0
21 08:15 SE 6 10.00 Partly Cloudy SCT033 SCT041 SCT047 64.4 64.4 100% 30.09 0.0
21 07:55 Calm 5.00 Fog/Mist SCT033 BKN045 BKN055 66.2 66.2 100% 30.09 0.0
21 07:35 Calm 4.00 Fog/Mist SCT004 BKN044 OVC050 64.4 64.4 100% 30.08 0.0
21 07:15 Calm 3.00 Fog/Mist SCT003 BKN042 OVC050 66.2 66.2 100% 30.09 0.0
21 06:55 Calm 2.50 Fog/Mist SCT018 BKN042 OVC050 66.2 66.2 100% 30.09 0.0
21 06:35 Calm 1.75 Fog/Mist BKN019 OVC024 66.2 66.2 100% 30.09 0.0
21 06:15 Calm 2.50 Fog/Mist SCT023 BKN031 OVC045 68 68 100% 30.08 0.0
21 05:55 E 3 2.50 Fog/Mist SCT028 OVC036 68 66.2 94% 30.07 0.0 0.01
21 05:35 NE 3 1.75 Fog/Mist SCT009 BKN032 OVC040 68 64.4 88% 30.09 0.0
21 05:15 NW 10 10.00 Overcast SCT030 OVC042 69.8 64.4 83% 30.09 0.0
21 04:55 N 9 10.00 Overcast OVC045 71.6 62.6 73% 30.07 0.0
21 04:35 N 3 10.00 Overcast OVC045 71.6 62.6 73% 30.05 0.0
21 04:15 Calm 10.00 Mostly Cloudy SCT045 SCT055 BKN110 71.6 62.6 73% 30.05 0.0
21 03:55 Calm 10.00 Mostly Cloudy SCT055 BKN110 71.6 62.6 73% 30.04 0.0
21 03:35 SE 3 10.00 Mostly Cloudy SCT049 BKN110 71.6 62.6 73% 30.04 0.0
21 03:15 SE 3 10.00 Mostly Cloudy SCT049 BKN055 BKN110 71.6 62.6 73% 30.03 0.0
21 02:55 Calm 10.00 Partly Cloudy SCT047 SCT055 71.6 62.6 73% 30.04 0.0
21 02:35 SE 3 10.00 Partly Cloudy SCT120 71.6 64.4 78% 30.04 0.0
21 02:15 SE 6 10.00 Mostly Cloudy SCT070 SCT100 BKN120 73.4 64.4 74% 30.05 0.0
21 01:55 SE 5 10.00 Overcast SCT070 OVC110 73.4 64.4 74% 30.05 0.0
21 01:35 SE 6 10.00 Overcast SCT070 OVC110 73.4 64.4 74% 30.06 0.0
Date Time (cdt) Wind (mph) Vis. (mi.) Weather Sky Cond. Air Dwpt Max. Min. Relative Humidity Wind Chill (°F) Heat Index (°F) altimeter (in) sea level (mb) 1 hr 3 hr 6 hr
6 hour
Temperature (ºF) Pressure Precipitation (in)